This demonstration page uses our WeatherBlox Daily Observations layout. Learn more.

36.17497, -115.13722

Hourly Observations for April 17, 2018

Temp ( °F °C ) Dew Point ( °F °C ) Humidity (%) Winds ( mph kmh ) Pressure ( in mb ) Visibility ( mi km ) Precip ( " mm )
12:53 am 00:53 Clear 51 10.6 19 -7.2 28 28 W 29 46 29.83 1010 10 16.09344 0 0
1:53 am 01:53 Partly Cloudy 51 10.6 24 -4.4 35 35 N 6 9 29.88 1012 10 16.09344 0 0
2:31 am 02:31 Cloudy 48 8.9 34 1.1 58 58 NW 20 31 29.94 1014 10 16.09344 0 0
2:53 am 02:53 Partly Cloudy 48 8.9 33 0.6 56 56 NW 15 24 29.91 1013 10 16.09344 0 0
3:53 am 03:53 Clear 50 10 29 -1.7 44 44 NNW 16 26 29.94 1014 10 16.09344 0 0
4:53 am 04:53 Clear 50 10 29 -1.7 44 44 NNW 29 46 29.94 1014 10 16.09344 0 0
5:53 am 05:53 Clear 50 10 28 -2.2 43 43 NNW 18 30 30 1016 10 16.09344 0 0
6:53 am 06:53 Sunny 51 10.6 28 -2.2 41 41 NNW 15 24 30.06 1018 10 16.09344 0 0
7:53 am 07:53 Sunny 53 11.7 27 -2.8 37 37 NNW 15 24 30.09 1019 10 16.09344 0 0
8:53 am 08:53 Sunny 56 13.3 25 -3.9 30 30 N 18 30 30.12 1020 10 16.09344 0 0
9:53 am 09:53 Sunny 58 14.4 24 -4.4 27 27 NNW 13 20 30.15 1021 10 16.09344 0 0
10:53 am 10:53 Sunny 59 15 22 -5.6 24 24 N 3 6 30.18 1022 10 16.09344 0 0
11:53 am 11:53 Sunny 61 16.1 19 -7.2 20 20 N 5 7 30.18 1022 10 16.09344 0 0
12:53 pm 12:53 Sunny 64 17.8 16 -8.9 15 15 ENE 8 13 30.15 1021 10 16.09344 0 0
1:53 pm 13:53 Sunny 65 18.3 5 -15 9 9 N 5 7 30.15 1021 10 16.09344 0 0
2:53 pm 14:53 Sunny 68 20 7 -13.9 9 9 N 12 19 30.12 1020 10 16.09344 0 0
3:53 pm 15:53 Sunny 66 18.9 8 -13.3 10 10 N 6 9 30.09 1019 10 16.09344 0 0
4:53 pm 16:53 Sunny 66 18.9 7 -13.9 10 10 S 8 13 30.09 1019 10 16.09344 0 0
5:53 pm 17:53 Sunny 66 18.9 7 -13.9 10 10 N 6 9 30.09 1019 10 16.09344 0 0
6:53 pm 18:53 Sunny 66 18.9 6 -14.4 9 9 S 5 7 30.09 1019 10 16.09344 0 0
7:53 pm 19:53 Clear 65 18.3 6 -14.4 10 10 Calm 30.09 1019 10 16.09344 0 0
8:53 pm 20:53 Clear 64 17.8 9 -12.8 11 11 S 3 6 30.09 1019 10 16.09344 0 0
9:53 pm 21:53 Clear 60 15.6 13 -10.6 16 16 Calm 30.12 1020 10 16.09344 0 0
10:53 pm 22:53 Clear 57 13.9 13 -10.6 17 17 N 8 13 30.12 1020 10 16.09344 0 0
11:53 pm 23:53 Clear 55 12.8 11 -11.7 17 17 NNW 6 9 30.09 1019 10 16.09344 0 0

Powered by AerisWeather